Theta_e
307 307 307 308 314 318 319 319 317 318 319 320 320 320 316 318 322 318 320 320 327 341 342 342 340 341 345 345 348 348 346 348 347 349 352 349 348 346 342 345 346 344 343 341 339 335 333 333 333 334 335 336 336 336 336 336 335 335 334 332 331 331 331 330 330 328 327 326 327 328 330 330 331 331 330 330 328 327 328 330 331 332 330 326 323 320 318 317 317 316 315 317 318 317 318 320 318
307 308 308 311 317 318 320 318 320 322 319 317 317 320 318 318 320 319 319 319 336 346 342 343 342 343 343 343 344 345 346 345 343 346 349 347 346 344 343 346 344 344 343 341 339 335 333 333 333 333 335 337 337 337 336 336 336 336 335 333 332 332 331 331 331 330 329 329 329 330 331 331 331 330 330 331 330 330 329 332 334 334 334 330 327 327 326 322 319 315 313 314 316 316 315 316 316
307 311 314 316 318 318 318 317 321 321 317 315 315 319 319 319 319 318 320 324 340 345 343 342 342 344 343 346 347 345 347 345 345 347 347 346 345 343 345 345 343 344 343 341 339 335 333 332 333 334 335 336 337 337 336 336 336 336 336 334 333 332 332 331 331 331 331 331 331 331 331 331 331 330 330 330 331 331 332 333 334 334 334 332 329 330 331 329 324 318 314 312 315 316 314 316 315
310 314 317 317 316 316 319 321 326 324 319 317 316 320 320 321 318 319 330 338 343 342 341 342 345 344 345 352 348 345 348 347 347 347 346 345 345 344 344 343 343 343 342 341 339 335 333 332 333 333 335 337 337 337 336 336 336 336 336 335 333 333 333 332 332 331 332 332 332 332 331 331 331 330 330 330 330 331 332 333 333 334 334 333 331 332 333 331 328 322 319 313 314 318 318 321 318
312 315 316 317 317 316 319 321 325 323 319 319 319 321 323 321 317 320 335 344 344 341 341 343 347 344 344 349 345 347 349 348 347 347 346 345 346 345 344 342 343 343 342 340 338 335 333 332 333 333 334 336 336 336 337 337 337 336 336 336 335 334 334 333 333 331 331 331 331 330 330 329 328 328 328 328 329 330 330 331 332 333 333 332 331 333 333 333 331 326 324 316 314 323 324 326 321
314 316 315 316 316 315 318 318 320 322 317 319 320 321 322 318 316 317 327 341 342 341 341 342 346 345 345 347 346 348 348 348 348 347 346 346 347 346 344 342 342 343 342 339 337 336 333 333 332 332 333 336 336 336 336 336 337 336 335 335 335 335 334 334 333 331 330 330 330 329 328 326 325 324 324 325 327 328 328 329 330 330 331 332 331 332 332 333 333 329 329 322 315 321 323 322 321
315 315 315 316 315 314 321 323 322 322 319 318 318 320 320 315 315 313 322 338 340 339 343 342 344 347 348 347 347 347 347 348 347 347 346 346 348 346 344 342 342 343 341 339 336 335 334 334 332 332 333 335 336 336 336 336 336 335 335 334 334 334 333 332 331 330 330 330 329 327 325 323 323 323 323 324 324 325 325 326 327 328 329 330 331 330 330 331 332 330 330 326 316 316 318 316 317
314 314 314 318 318 316 320 322 321 320 318 316 316 317 318 316 314 312 318 330 339 340 343 343 343 347 348 346 348 347 347 347 347 347 346 347 348 347 343 341 343 342 339 337 335 335 334 334 333 332 332 334 336 336 336 335 336 335 334 333 332 332 332 331 330 330 329 328 327 325 324 324 325 326 326 325 325 324 324 324 325 326 326 327 328 328 329 329 330 330 329 328 319 314 316 316 317
314 314 313 318 319 317 319 319 317 316 317 318 316 315 315 315 314 315 315 324 339 342 343 343 341 347 348 345 347 347 346 347 347 348 347 348 349 347 343 342 342 341 338 336 334 334 334 334 333 332 332 333 335 336 336 335 335 335 334 332 332 332 331 330 330 329 328 326 325 324 325 327 328 328 328 326 325 325 325 325 325 325 325 326 326 326 326 327 328 329 328 328 323 316 317 320 321
314 314 313 317 318 317 318 318 317 317 317 317 314 314 314 314 313 313 313 327 343 343 343 343 342 346 347 346 347 347 347 347 347 349 348 348 349 347 343 342 342 340 337 335 334 333 335 334 332 332 331 332 335 336 336 335 334 334 333 332 331 331 331 330 329 328 326 324 324 325 327 328 328 329 328 327 326 326 325 325 325 326 327 327 327 326 325 326 326 327 327 326 325 319 318 323 324
313 312 312 317 319 317 317 317 320 321 318 314 313 314 314 313 313 311 317 335 344 343 343 343 345 346 345 346 346 347 347 348 347 349 348 348 349 346 343 342 340 339 336 335 334 333 334 333 332 331 330 333 334 335 336 335 334 333 332 331 331 331 331 329 328 327 325 324 325 327 329 329 330 329 328 328 327 325 324 324 324 325 326 327 326 326 324 324 323 322 323 323 324 321 320 326 328
313 313 316 320 320 318 317 317 320 322 319 317 317 315 314 312 314 320 332 344 344 343 343 342 346 345 346 347 346 347 347 348 347 347 348 348 347 345 342 341 340 338 335 334 333 333 333 333 332 331 331 332 331 332 333 333 332 331 330 329 330 331 330 328 327 326 324 324 326 328 330 330 330 329 329 327 326 324 323 323 323 324 324 325 325 324 323 323 321 316 317 320 323 322 322 327 330
314 314 318 319 318 318 316 316 317 321 322 318 316 314 314 311 315 330 339 345 343 345 344 340 343 344 346 347 346 347 347 348 348 347 347 346 345 343 341 340 338 336 335 335 334 334 333 332 331 331 331 331 329 329 329 329 330 329 328 329 330 329 328 327 326 325 325 324 326 328 330 330 329 329 329 327 326 324 323 323 322 323 323 323 324 325 325 324 323 318 314 317 322 321 322 328 330
314 313 317 317 314 316 315 316 316 316 320 318 313 312 315 312 321 335 341 345 343 343 342 340 340 344 347 346 347 348 347 348 347 347 346 345 344 341 340 338 337 335 335 335 335 334 332 331 331 330 330 330 329 328 327 328 328 327 328 328 328 328 327 327 326 326 325 325 326 328 329 329 329 329 329 327 325 325 323 323 322 322 321 320 322 324 325 322 322 321 314 315 320 320 321 328 331
314 312 318 318 314 315 313 315 315 314 318 318 314 312 314 319 329 337 341 345 343 341 341 342 340 343 347 346 347 346 346 348 347 346 345 344 342 340 339 337 335 334 335 335 334 334 332 331 330 329 330 330 329 329 328 328 328 327 328 328 327 327 327 327 327 327 326 326 325 327 329 329 329 329 329 327 326 325 324 324 323 322 321 320 319 319 320 319 321 321 316 314 318 319 320 327 331
314 312 318 317 313 314 312 313 314 315 319 318 313 313 314 323 332 335 335 338 341 342 342 342 340 340 341 342 344 343 346 347 346 346 344 342 341 339 338 336 334 334 334 333 333 333 331 331 330 330 332 331 330 330 329 328 328 327 327 327 326 327 327 327 327 327 327 326 326 327 328 328 329 329 328 327 327 326 325 325 324 323 322 321 319 318 316 318 321 321 318 315 316 319 319 325 331
314 314 317 316 315 314 314 314 314 316 319 317 312 313 313 321 334 337 336 336 342 343 340 340 341 339 338 340 341 342 346 347 345 344 342 342 340 338 337 334 334 334 334 333 334 333 331 331 330 331 332 332 331 330 328 328 327 326 327 327 327 328 328 327 327 328 328 327 327 327 328 328 328 328 327 328 327 326 326 326 325 324 322 321 319 317 316 317 320 322 320 316 315 318 319 323 329
315 318 318 316 316 315 316 319 316 314 316 315 312 313 312 317 334 340 339 340 341 341 339 339 341 340 339 342 342 343 346 346 344 343 342 340 339 338 335 333 335 335 334 334 334 333 331 331 331 332 333 333 331 329 329 327 328 328 328 329 329 328 328 329 328 328 328 328 328 328 328 328 328 327 327 328 328 327 327 326 325 324 322 321 319 318 318 316 320 323 321 317 317 319 318 321 328
315 316 316 316 317 314 314 316 314 313 314 314 312 313 312 314 327 336 342 342 340 343 342 339 341 342 342 343 343 345 346 345 343 342 341 340 339 338 335 334 336 336 335 335 333 331 332 331 331 331 332 332 330 329 330 329 329 330 330 331 331 330 331 330 329 329 329 329 328 328 328 328 328 327 328 328 328 328 327 326 323 322 322 320 319 318 319 317 319 323 322 318 319 321 319 320 326
313 312 316 318 316 314 312 312 313 313 313 312 311 311 312 313 317 330 341 339 338 344 344 341 341 342 343 344 345 346 346 345 343 342 341 340 338 334 333 333 334 335 336 335 333 332 332 331 330 330 331 331 330 330 330 330 330 331 331 332 333 332 333 332 330 330 330 330 329 328 328 328 328 327 328 329 329 328 328 326 323 321 321 320 320 319 320 319 319 322 322 319 320 322 320 320 325
311 311 316 316 311 313 314 312 313 313 312 312 312 311 313 313 314 327 338 341 342 339 339 339 338 340 343 345 346 346 346 344 343 343 342 341 338 333 331 332 331 330 333 336 334 333 331 330 330 330 330 329 330 330 330 331 331 331 332 333 334 334 334 333 331 331 331 330 329 328 328 329 329 327 328 329 329 329 328 328 325 323 321 319 321 320 320 320 319 322 322 319 321 323 321 321 326
311 311 312 311 309 312 313 313 313 313 313 311 311 312 313 314 319 329 336 345 346 334 332 334 332 336 341 344 346 345 346 345 344 344 342 342 340 337 335 334 332 327 327 334 334 332 331 331 331 330 329 330 330 331 331 332 332 332 332 333 334 334 333 333 332 331 331 330 329 328 328 329 329 328 328 329 330 329 329 328 327 325 320 318 321 321 321 322 319 321 322 320 321 323 322 321 326
313 313 309 310 310 311 312 312 312 312 312 311 312 313 312 313 319 329 332 334 333 325 327 332 335 339 342 344 345 345 345 344 343 343 343 342 340 339 337 334 334 329 326 332 335 333 333 332 331 331 330 331 331 331 331 332 333 332 333 333 333 333 332 333 332 331 331 331 330 329 329 329 329 328 328 329 330 329 329 329 328 326 320 317 322 324 325 325 321 320 322 320 320 323 323 322 325
313 313 310 311 311 311 312 313 312 312 311 311 312 312 312 312 313 325 330 326 323 322 324 332 338 342 343 345 345 345 345 343 344 343 342 342 340 338 336 333 333 332 330 333 336 335 334 333 332 331 331 332 332 332 333 333 333 333 333 334 334 332 331 332 332 332 332 331 331 331 329 329 329 329 328 328 329 330 329 329 329 327 322 319 324 325 327 326 322 322 322 320 321 324 324 322 324
311 312 311 311 311 311 312 312 312 312 311 311 312 311 312 312 311 320 325 322 324 324 327 334 339 342 343 344 344 344 344 344 344 343 341 340 339 337 335 334 332 332 334 335 336 336 334 333 332 332 332 333 333 334 335 334 334 334 335 335 334 332 329 330 331 332 332 332 332 331 330 330 330 329 329 329 329 330 329 328 328 328 326 324 326 327 327 325 323 323 322 321 324 324 325 324 323
311 311 311 310 311 311 312 311 312 312 311 311 311 312 313 312 313 319 324 326 330 331 334 338 339 343 343 343 343 344 343 343 343 342 341 339 338 336 334 335 333 332 335 336 336 335 334 334 333 333 333 333 333 335 335 334 333 333 334 335 334 331 329 329 330 331 331 331 331 331 331 331 331 330 330 329 329 330 329 327 326 328 328 327 327 327 327 325 323 323 323 323 325 325 325 325 324
310 310 310 310 311 311 311 311 312 311 311 311 312 314 313 312 315 319 326 333 334 335 339 340 340 342 342 343 344 343 343 342 341 341 340 340 338 334 333 335 335 334 334 335 335 335 334 334 334 334 334 334 333 334 335 334 332 331 331 333 333 331 330 330 330 331 331 331 331 331 331 331 331 330 330 330 329 330 330 327 327 328 329 329 328 327 327 327 326 324 323 324 326 325 324 324 324
310 311 311 312 310 310 310 310 310 310 311 312 311 313 311 312 316 316 326 337 337 337 341 342 341 342 342 343 344 343 343 341 341 341 338 337 336 334 333 335 336 335 335 335 334 334 334 334 334 334 334 335 334 335 334 333 331 330 330 329 330 330 331 331 330 330 330 330 331 331 332 332 331 330 330 332 330 330 331 330 329 329 330 330 328 327 327 328 327 325 322 323 326 326 325 325 326
311 311 313 316 313 312 311 309 309 310 312 313 311 312 312 314 315 315 330 339 339 339 341 342 341 342 343 343 344 343 343 342 342 341 335 333 334 332 334 337 337 336 335 335 334 333 333 333 334 334 334 335 335 334 332 330 329 328 328 328 329 330 331 331 330 330 329 329 330 331 332 332 332 331 331 332 331 331 331 331 330 329 330 330 328 328 327 328 327 326 323 322 325 327 326 326 327
312 311 312 316 315 315 311 308 310 309 312 313 311 313 317 319 312 316 336 340 339 341 341 342 341 342 342 342 343 342 342 342 342 341 335 332 332 330 334 338 337 337 336 335 334 333 333 333 334 333 333 333 331 331 330 329 329 327 328 329 329 330 331 331 330 330 330 329 329 330 330 331 331 331 330 331 332 331 331 331 330 328 328 328 328 328 328 328 327 327 325 324 326 327 326 326 327
313 310 313 315 312 318 315 309 311 311 312 312 311 314 318 322 312 318 339 340 338 341 340 341 341 341 341 341 342 342 342 342 342 341 335 332 331 329 335 338 338 339 338 335 334 333 333 333 333 332 331 331 330 330 329 329 330 329 330 330 330 330 330 329 329 329 329 328 327 327 329 329 330 330 331 331 331 331 331 331 330 327 325 326 326 326 327 327 327 328 327 326 326 327 327 327 327
316 311 318 319 311 318 318 310 311 312 313 311 311 315 316 321 312 318 339 340 338 340 340 341 341 341 341 340 341 342 342 341 342 341 336 334 332 331 336 337 335 337 338 338 335 333 333 333 333 333 331 330 330 330 330 329 330 330 330 330 330 329 329 328 328 327 327 326 325 325 327 329 329 330 331 330 331 331 331 330 329 326 324 325 325 326 326 326 327 327 328 327 327 326 327 328 328
323 315 319 320 313 317 319 313 310 310 312 311 312 316 317 318 310 318 338 341 339 339 339 341 340 341 340 340 341 341 342 342 342 341 338 336 333 332 337 334 329 330 334 338 337 333 333 333 332 332 330 330 330 329 328 328 329 329 328 328 328 328 326 325 325 324 325 325 325 325 327 329 329 330 330 329 330 330 330 330 329 326 326 326 326 326 326 326 325 326 327 328 328 328 328 328 328
324 320 320 321 316 315 317 318 312 308 312 313 312 314 316 316 310 322 341 340 338 340 339 341 340 340 340 340 341 341 342 342 341 341 339 337 334 333 337 334 328 328 329 334 337 335 333 332 331 330 329 328 328 326 325 325 326 326 325 325 325 324 322 321 321 323 325 326 327 328 328 329 329 330 329 328 328 328 329 329 328 326 327 327 326 325 326 326 326 326 327 327 328 328 328 328 328
320 320 320 319 317 316 317 319 316 312 313 313 313 313 316 316 312 322 340 340 338 339 338 340 339 340 340 339 341 341 341 342 341 341 340 338 334 333 338 335 328 328 328 329 335 336 333 332 330 329 328 326 323 321 320 322 323 324 323 321 321 320 319 320 322 325 326 327 328 329 329 329 329 328 328 327 326 327 328 329 327 326 326 326 326 326 326 326 327 327 327 327 327 328 328 328 328
319 317 317 317 317 317 316 317 316 313 313 313 313 313 313 315 313 319 334 340 338 338 338 339 339 339 339 338 340 341 341 341 341 341 340 337 334 334 338 334 326 328 328 325 331 336 334 330 329 327 326 322 319 317 316 319 320 320 320 318 318 318 317 319 321 321 322 323 326 328 328 328 328 326 326 326 327 327 328 328 328 327 327 326 327 327 326 327 328 328 328 327 327 327 327 328 327
315 315 316 316 316 316 317 317 316 312 313 316 314 313 313 315 316 318 328 337 336 336 337 337 339 338 338 338 339 340 341 341 341 340 338 336 335 336 339 335 328 328 328 325 331 335 333 328 325 324 323 319 316 316 315 315 316 316 316 316 315 315 315 316 316 315 314 317 323 327 327 327 327 326 326 327 328 328 328 328 328 328 327 326 325 325 326 328 328 328 328 328 327 327 327 328 327
314 315 316 316 316 318 318 316 318 314 314 317 315 312 312 315 318 317 326 337 335 334 335 336 338 338 337 338 339 340 341 340 340 340 337 334 336 337 339 338 334 332 331 330 333 335 331 326 323 321 320 319 317 315 314 314 315 315 314 314 314 314 315 315 313 312 309 312 319 323 325 326 326 326 327 328 328 328 328 329 328 326 325 324 324 324 325 327 327 328 328 328 327 327 327 327 326
318 317 316 318 317 317 316 316 320 317 314 316 315 313 313 318 321 318 325 335 334 334 335 336 338 338 338 338 339 340 340 340 340 340 337 336 337 338 339 340 338 335 333 334 335 333 330 324 322 321 319 318 319 316 314 314 315 315 315 314 314 315 317 316 314 312 309 309 315 320 323 325 325 326 327 328 327 327 327 327 326 324 324 324 324 324 324 326 326 326 327 327 327 327 327 326 325
321 319 317 319 317 314 317 319 321 320 316 316 318 318 318 322 322 316 318 324 328 332 334 335 337 337 338 338 339 340 339 339 340 340 339 337 338 339 340 341 340 338 335 335 334 332 330 324 319 320 319 318 319 316 314 315 315 316 316 315 314 315 318 317 315 313 309 308 312 319 323 324 325 325 326 326 325 324 324 323 323 322 322 321 322 322 322 323 325 325 326 326 326 326 326 326 326
323 321 319 320 318 315 316 319 325 327 320 317 323 324 320 322 322 316 317 318 320 328 331 334 336 336 337 337 338 339 339 339 339 340 340 338 337 339 340 341 340 339 336 335 333 332 331 325 318 317 317 317 318 315 314 316 315 317 316 315 313 314 314 314 314 313 310 307 310 315 320 322 323 323 323 323 322 321 321 320 320 320 319 319 319 320 320 321 323 325 325 325 325 326 326 326 326
322 323 322 319 319 318 317 320 326 331 322 315 319 320 320 327 327 321 323 322 320 326 331 333 334 335 336 336 337 338 339 339 338 339 339 337 336 337 340 341 340 340 338 335 333 332 332 327 320 317 315 315 315 315 315 316 316 316 316 314 313 312 311 311 312 312 308 307 307 308 311 313 315 316 315 314 315 316 317 318 318 317 317 317 318 320 321 322 323 324 324 323 325 325 325 326 325
319 323 322 318 318 319 319 321 322 324 321 316 318 322 323 327 326 320 323 325 324 327 330 331 332 334 335 335 336 337 337 338 337 338 338 337 335 336 339 340 341 341 339 335 333 332 332 329 322 316 314 314 315 315 316 317 316 316 315 315 314 313 313 313 312 309 307 306 307 306 307 307 308 308 308 308 310 313 316 317 316 315 315 316 318 319 321 322 322 322 322 323 324 325 325 325 324
321 322 318 317 319 319 323 326 322 321 320 320 325 328 323 322 324 322 320 323 325 327 329 329 329 332 334 334 335 336 336 336 336 337 337 336 335 336 338 339 340 341 339 336 333 332 332 331 325 316 314 314 314 316 316 316 316 315 315 316 316 315 316 317 314 309 306 307 307 307 307 307 306 307 308 310 313 316 317 316 314 314 316 317 318 319 320 321 320 321 321 322 322 322 322 323 323
323 321 316 318 319 321 328 328 325 325 319 319 328 326 320 325 333 328 320 320 323 325 329 329 327 329 332 333 334 335 336 335 336 337 337 336 335 336 336 337 338 339 339 335 333 332 332 331 326 316 313 314 314 316 316 316 317 316 316 317 318 318 318 319 317 310 306 307 307 307 306 306 306 306 308 311 316 318 318 316 315 316 318 319 319 319 320 319 319 320 320 320 320 319 320 320 321
319 317 315 317 320 324 331 327 325 328 322 320 325 320 316 326 337 331 318 317 321 325 328 324 323 327 331 331 333 334 335 335 335 335 336 335 336 336 335 337 338 337 337 335 333 332 331 331 327 317 313 313 314 315 316 316 317 316 316 317 318 320 319 319 317 310 306 307 307 307 306 305 305 306 306 310 314 316 316 316 315 316 319 320 320 319 318 317 318 320 320 320 319 319 319 320 320
312 317 318 318 323 328 332 331 326 323 322 323 325 322 317 321 332 331 320 317 320 324 326 322 319 323 328 330 331 333 334 335 335 334 334 334 334 335 335 336 336 336 336 334 332 332 331 331 327 318 314 314 314 314 314 315 316 317 316 316 319 319 319 319 315 309 306 307 307 306 306 305 305 305 306 308 312 314 314 314 313 314 316 318 317 317 315 314 317 320 319 318 318 317 318 319 319
313 321 321 317 322 325 326 329 324 319 323 325 325 322 317 318 326 325 322 322 321 320 321 323 321 319 325 330 330 332 333 333 334 333 333 333 333 334 334 334 334 334 334 333 332 332 331 330 327 320 316 315 315 314 314 314 316 317 316 316 318 319 319 319 314 308 307 308 307 307 306 305 305 305 306 308 311 312 311 310 310 311 312 312 312 311 311 312 315 318 318 317 317 316 316 318 318
317 320 321 317 319 320 321 323 322 321 323 320 320 320 316 323 326 318 317 319 317 314 314 315 314 313 320 327 329 330 331 332 332 332 331 331 331 331 331 331 332 332 333 332 332 331 330 330 327 323 320 319 319 318 316 314 316 318 318 318 320 319 319 318 313 308 307 308 307 306 305 305 304 304 306 308 310 310 308 307 307 308 307 307 306 307 308 310 311 313 314 313 313 313 313 314 314
315 317 320 320 318 317 318 318 317 319 322 318 317 317 316 322 322 315 316 315 312 313 313 313 312 311 314 321 326 327 327 329 330 330 330 329 328 327 325 325 326 328 330 331 332 331 330 329 327 325 324 323 322 321 319 317 315 316 317 319 320 320 319 315 311 308 308 308 307 305 305 304 305 304 306 308 308 307 306 306 306 306 305 305 305 305 305 306 307 307 307 306 307 307 307 306 306
313 315 316 317 321 321 318 319 320 318 320 319 315 314 319 322 317 314 315 313 314 317 319 319 318 314 313 318 324 326 325 327 328 328 329 328 329 328 326 325 324 324 326 327 329 330 330 328 326 325 324 324 323 323 322 320 317 316 318 320 320 320 318 314 310 308 308 308 306 305 304 304 305 305 306 307 307 306 306 305 305 305 305 305 305 305 305 305 305 305 305 304 305 305 304 305 305
311 311 314 316 320 324 319 316 320 322 321 320 315 315 321 322 316 315 315 317 319 319 320 320 320 319 319 321 324 324 324 325 325 326 327 327 327 328 329 327 325 325 326 326 327 327 329 328 326 325 325 325 326 325 324 322 319 320 320 321 320 319 315 312 311 310 308 308 306 304 304 304 305 305 305 306 306 305 305 305 305 305 305 305 305 305 305 304 304 304 304 304 304 304 304 304 304
313 310 314 315 315 323 322 313 315 321 321 318 315 316 320 320 316 316 321 325 323 320 320 320 320 322 322 322 323 323 324 324 324 325 325 325 325 326 327 324 322 323 325 326 326 325 327 328 327 326 326 327 327 327 326 323 321 320 320 321 320 316 312 310 312 313 309 307 306 304 304 305 305 305 305 305 305 305 305 305 305 305 305 305 305 305 304 304 304 304 304 304 304 304 304 304 304
315 313 314 313 311 317 324 320 319 319 318 318 316 315 318 321 320 319 322 326 324 323 322 319 320 322 322 322 323 324 324 324 324 324 322 323 324 325 325 322 322 323 323 326 326 326 328 328 327 327 327 327 327 328 325 322 321 321 319 319 318 315 312 311 313 316 313 308 306 305 305 305 305 305 305 305 305 305 305 305 305 305 305 305 305 305 304 304 304 304 305 305 305 305 305 305 306
312 313 310 311 315 316 316 319 321 318 315 315 314 314 316 318 320 318 318 321 322 322 323 321 320 321 320 322 322 322 324 325 323 321 320 322 323 323 323 323 324 324 323 324 325 326 327 327 327 327 327 328 329 327 323 319 320 320 317 317 316 314 314 312 312 315 316 311 306 305 305 305 306 305 305 306 305 305 305 306 305 305 305 305 305 305 305 305 305 305 306 307 307 308 308 308 308
308 310 310 314 320 319 315 317 319 319 318 316 313 315 318 318 316 314 314 316 317 317 321 322 319 318 320 321 321 322 323 324 323 322 322 323 323 324 324 325 326 325 325 325 325 325 325 325 325 325 327 330 329 328 326 321 319 319 317 316 315 314 315 314 311 314 317 313 307 306 306 306 306 306 306 306 306 306 306 306 306 305 306 305 305 305 305 305 306 306 306 307 308 308 308 308 309
311 315 316 315 314 312 313 313 313 318 322 321 317 317 320 317 312 312 313 313 314 313 317 320 316 317 321 320 321 322 322 322 323 323 324 324 324 326 326 326 326 326 326 326 326 326 326 325 325 325 327 328 328 329 328 324 320 320 319 318 315 314 315 314 312 314 316 315 310 307 306 306 306 306 306 306 306 306 306 306 306 306 305 306 306 306 306 306 306 306 307 307 307 307 307 307 307
316 318 314 313 313 313 314 311 310 316 321 320 318 320 321 315 310 310 311 311 312 310 312 316 316 318 321 321 322 323 322 323 323 324 324 324 324 324 323 323 324 324 324 324 324 325 326 326 326 325 326 327 327 328 328 326 324 321 320 317 314 315 317 315 314 315 316 317 314 309 307 307 307 307 307 307 307 307 307 307 307 306 306 306 306 306 306 306 306 307 307 307 307 307 307 307 307
Wind_Speed
11 10 10 14 15 12 8 6 2 2 2 1 3 1 4 4 2 3 4 5 3 3 2 3 6 11 10 8 10 10 6 7 5 4 3 4 18 25 24 25 26 28 29 29 29 28 27 24 23 22 21 21 20 19 18 16 14 13 12 13 13 14 14 14 13 12 12 13 13 13 13 13 13 12 12 12 12 13 13 12 12 11 9 8 8 8 7 6 6 7 8 10 12 12 11 11 11
11 12 13 14 12 9 5 3 1 2 3 1 4 4 4 3 1 4 7 6 2 4 10 12 13 13 14 16 15 12 6 3 5 6 7 15 26 28 25 25 26 28 29 29 28 29 27 25 24 22 21 21 21 19 18 16 15 13 12 12 13 14 14 14 13 12 12 12 12 13 13 12 12 12 12 12 12 12 12 13 12 12 10 8 8 8 8 7 6 6 7 9 11 11 11 10 11
13 14 13 12 9 7 4 2 1 1 3 2 5 4 3 1 1 6 7 3 6 10 9 8 9 9 9 11 8 5 4 3 6 10 13 22 29 28 26 24 26 28 28 28 28 28 27 25 24 22 21 21 21 20 18 17 15 14 13 13 13 14 14 14 13 13 12 12 12 12 12 12 11 11 11 11 11 11 12 12 12 12 11 10 9 8 9 7 7 7 5 7 10 11 11 10 11
14 14 12 10 8 4 4 2 2 4 3 3 4 5 3 3 2 5 3 5 10 6 8 6 6 6 5 6 5 5 5 4 7 13 18 24 27 27 26 25 27 29 28 27 27 28 27 25 24 22 21 21 21 20 18 17 15 15 14 14 14 14 14 13 12 12 12 12 12 11 11 10 10 10 10 10 10 10 10 10 11 11 10 10 10 9 9 7 6 7 6 4 8 10 11 11 11
13 13 11 9 6 2 3 2 2 4 4 4 2 5 3 4 2 4 1 6 7 1 8 5 3 5 8 7 4 4 6 7 9 14 21 25 26 25 25 26 28 29 29 28 27 27 26 24 22 21 20 21 21 20 19 17 15 15 15 15 14 13 13 12 11 11 11 11 11 10 10 9 8 8 8 9 9 9 9 8 8 9 9 10 10 9 8 7 5 6 6 4 7 10 12 12 12
12 12 9 6 4 3 3 2 2 3 5 5 2 5 4 5 4 1 2 6 8 3 5 2 0 2 6 7 7 8 7 6 10 16 23 27 25 25 25 27 29 30 29 28 27 26 26 24 21 20 20 20 21 20 19 17 16 15 15 15 14 13 12 11 11 11 11 11 10 9 9 8 8 8 8 8 8 8 8 8 7 7 8 9 9 8 7 6 4 3 5 5 4 9 11 12 12
12 10 6 5 3 2 3 3 4 4 5 4 3 6 6 5 6 1 2 4 6 5 3 2 7 5 4 4 7 7 2 1 12 18 24 29 26 25 26 28 29 30 29 28 27 26 26 25 22 19 19 19 20 21 20 18 16 15 15 14 14 12 12 11 11 11 11 11 10 10 10 10 10 9 9 9 8 8 8 8 7 7 7 7 7 7 5 5 3 1 3 4 2 6 9 11 11
10 7 5 4 2 2 3 2 4 4 4 4 4 8 11 13 7 2 3 3 4 5 4 10 9 5 1 1 4 2 2 4 14 19 24 28 26 26 27 29 30 30 29 28 26 25 25 24 23 20 19 19 20 21 20 19 17 16 14 14 14 13 12 11 12 12 12 11 11 11 11 11 11 10 10 9 9 9 9 8 7 7 6 6 6 6 5 5 3 1 1 2 2 4 8 10 11
10 6 3 3 2 2 1 2 4 3 4 6 5 10 16 20 14 3 6 4 3 7 11 10 3 2 3 4 5 2 2 6 14 19 24 27 26 25 27 28 29 30 29 28 26 25 25 23 22 20 19 19 19 20 20 19 17 16 15 14 14 13 12 12 13 13 13 13 13 13 13 12 11 10 10 10 10 10 9 9 8 7 7 6 6 6 6 6 5 3 2 1 1 2 7 9 10
8 5 3 2 3 1 2 3 3 3 5 5 6 14 19 19 14 6 8 5 8 10 10 6 2 7 9 5 4 4 6 8 15 20 22 24 24 24 26 27 28 29 29 28 26 24 23 21 20 20 19 18 18 19 20 19 18 17 15 14 14 13 12 13 14 14 14 14 14 13 13 12 11 10 9 10 9 9 9 8 8 7 7 7 7 6 6 5 5 4 3 3 2 2 6 8 10
4 2 3 4 3 3 3 3 3 4 5 4 7 14 15 14 10 5 7 7 11 11 10 6 6 12 10 4 3 6 8 10 16 20 21 23 23 25 27 28 28 28 29 27 25 24 22 20 18 19 19 19 18 18 18 18 17 17 16 15 14 14 13 13 14 15 15 14 14 13 11 10 10 9 9 9 8 8 8 7 6 6 6 6 6 6 5 5 5 5 5 5 5 5 7 10 10
2 0 4 4 2 4 4 2 4 5 6 4 5 10 14 12 4 4 7 9 11 9 9 8 10 13 7 2 5 7 10 13 16 20 22 24 24 26 27 28 28 27 27 26 25 23 22 21 19 17 18 18 17 16 16 17 17 18 17 16 15 14 13 14 14 15 15 14 13 11 10 9 8 8 8 8 8 7 7 6 6 5 5 5 5 5 5 6 6 6 6 7 8 8 10 12 12
3 2 5 3 3 3 3 2 4 4 5 3 4 13 20 11 1 9 10 10 11 9 7 10 16 13 4 3 8 11 13 15 18 21 23 24 26 27 27 28 28 27 26 26 25 24 23 22 19 16 17 17 16 16 17 18 18 18 17 16 15 15 14 14 14 14 14 13 12 10 9 8 7 7 7 7 7 7 6 6 6 5 5 4 4 5 5 5 6 6 6 8 10 10 12 14 14
4 3 4 3 0 3 3 1 2 1 3 5 3 16 20 9 4 14 15 9 6 6 7 13 19 11 5 6 8 15 17 18 21 21 23 24 26 27 27 28 28 28 26 27 25 24 23 21 18 16 17 17 18 18 18 18 18 18 16 16 15 15 14 14 14 14 13 12 11 9 7 6 6 6 6 6 6 6 6 6 5 5 4 4 4 4 4 4 5 6 5 8 10 12 15 16 15
4 2 4 3 1 1 2 2 2 3 3 5 4 18 16 9 8 12 13 8 3 6 12 16 18 5 6 11 8 22 23 22 24 22 24 24 26 27 28 29 28 28 27 26 25 23 23 21 19 19 20 20 21 21 20 19 18 17 17 16 16 15 14 13 13 13 12 12 10 9 7 6 5 5 5 5 5 4 4 4 4 4 3 3 3 3 3 4 5 5 5 7 10 12 16 18 17
4 2 4 2 1 2 2 3 2 3 4 5 4 17 13 8 9 7 3 6 7 13 13 10 13 2 7 14 6 23 27 24 26 23 26 26 27 28 28 29 28 28 26 25 24 24 23 21 19 20 22 21 22 22 22 21 18 18 17 16 16 15 14 13 12 12 11 11 10 8 7 6 4 4 4 4 4 3 3 2 2 3 3 2 2 2 2 3 5 6 5 6 9 11 15 19 19
3 3 3 1 2 3 3 4 3 2 5 5 7 14 8 6 8 7 2 8 13 18 8 4 12 4 6 12 3 21 28 26 27 26 28 27 29 29 30 30 28 28 26 25 24 24 23 20 20 21 21 19 20 21 22 21 19 18 17 17 16 15 14 13 12 12 11 10 9 8 7 6 5 4 3 2 2 2 2 1 2 2 3 3 2 2 1 3 5 6 5 6 8 10 13 18 19
3 3 2 2 3 4 5 6 5 3 3 5 9 12 6 4 3 7 6 8 13 13 3 4 10 3 5 9 6 24 27 27 28 27 29 29 30 31 31 31 28 29 27 26 24 24 23 21 21 21 20 19 20 20 21 20 19 19 18 17 16 15 14 13 13 12 11 10 9 8 7 6 5 4 3 2 2 1 1 1 1 2 3 3 3 2 1 2 5 5 5 5 8 9 11 17 19
4 3 2 3 5 4 5 7 5 2 3 7 13 11 5 4 2 6 4 3 8 6 0 4 7 2 8 9 14 27 28 28 27 27 28 28 30 31 33 32 30 30 28 27 25 24 23 21 21 20 20 20 20 20 20 20 19 18 18 17 15 14 13 12 12 11 10 8 7 6 6 7 6 5 4 3 3 2 2 1 1 2 3 3 3 3 1 2 4 5 5 5 8 8 10 15 19
4 3 1 5 6 4 8 9 8 9 7 8 11 9 7 9 3 5 6 5 3 4 4 5 7 9 12 14 23 29 28 27 25 25 24 24 25 24 26 28 29 30 28 27 25 24 23 21 20 19 19 20 20 20 19 19 18 18 17 16 14 13 12 11 10 9 8 7 7 7 7 7 7 6 6 4 3 3 3 2 1 1 2 3 3 2 1 1 3 5 5 5 7 8 9 14 18
2 4 4 4 4 3 9 13 13 15 10 7 9 9 10 8 3 6 11 8 3 7 11 11 12 16 18 21 28 29 28 26 23 23 22 23 22 17 16 18 23 26 27 27 26 25 23 21 19 19 20 20 20 19 18 18 17 17 15 14 13 13 11 10 9 8 8 7 7 8 8 7 7 8 6 4 2 2 3 2 2 2 2 3 3 2 1 1 1 3 5 6 7 7 8 13 17
1 4 6 5 5 2 9 9 9 11 9 8 7 7 7 3 2 11 15 7 4 7 13 15 15 20 22 27 31 30 28 26 25 26 25 25 25 21 20 19 21 22 23 26 26 25 23 20 19 20 20 19 18 17 17 16 15 15 13 13 13 11 9 8 7 7 7 6 7 8 8 8 7 8 6 4 2 2 3 3 4 3 3 3 3 2 1 1 1 3 5 7 7 7 8 13 17
2 4 4 5 6 5 10 8 7 10 8 8 6 7 6 2 0 12 15 7 4 4 9 14 16 20 24 29 33 31 30 29 29 28 26 25 24 23 22 21 21 21 22 24 24 23 22 21 20 19 18 17 17 16 15 14 13 13 12 11 10 8 7 7 6 5 5 5 6 6 7 7 7 7 7 5 3 3 3 3 4 4 3 3 3 2 1 2 2 3 5 7 8 6 6 11 16
4 3 3 6 7 9 14 13 12 14 12 14 13 11 11 5 2 7 13 10 8 8 9 11 17 22 26 30 33 33 32 31 29 27 25 24 22 20 21 21 21 22 24 25 24 24 24 23 21 19 18 17 16 16 14 13 13 12 11 10 8 7 6 6 5 5 5 5 5 6 6 6 7 7 7 6 5 5 4 3 3 4 2 2 2 2 1 2 2 4 6 8 8 7 6 9 15
4 5 5 4 7 12 16 15 16 18 17 19 14 10 16 14 5 5 9 11 9 8 8 12 19 24 28 31 33 33 32 30 29 28 25 23 20 19 21 22 22 24 26 26 25 25 25 23 21 19 18 17 16 15 14 14 13 12 11 10 8 7 5 5 5 6 6 6 6 6 6 7 7 7 7 7 7 7 5 3 3 3 2 2 2 1 1 2 3 5 8 10 10 8 7 9 14
5 8 7 5 8 14 15 14 17 16 16 13 5 8 17 15 5 4 5 6 5 4 10 16 22 27 29 31 33 33 33 31 29 28 24 21 20 20 23 24 24 27 28 27 27 26 24 22 21 19 18 16 15 14 14 13 12 11 11 10 9 7 5 5 5 6 6 7 8 8 8 8 8 8 8 8 9 8 7 5 3 2 2 2 2 2 2 3 3 5 9 12 10 9 9 9 12
5 7 7 8 12 15 12 11 15 12 12 11 7 7 9 4 3 4 4 3 4 9 16 20 25 28 30 32 33 33 32 31 29 27 25 23 23 23 26 27 26 28 28 28 27 25 23 22 21 19 17 16 15 14 13 12 11 10 9 8 9 8 6 6 6 7 9 10 10 10 10 10 10 9 9 9 9 9 8 6 4 3 3 3 4 4 4 4 4 5 10 12 10 9 9 9 11
5 4 4 9 9 11 9 10 14 8 6 12 12 5 2 2 2 5 5 8 10 15 21 24 27 28 31 32 33 32 31 30 29 27 26 25 26 27 29 29 28 29 28 27 26 23 22 22 21 19 18 16 15 14 12 11 10 9 8 7 8 8 8 8 8 8 10 11 12 12 13 13 12 11 10 10 10 9 8 7 5 4 5 5 5 6 6 6 5 5 9 13 11 9 9 10 10
5 1 3 7 7 7 7 5 7 6 4 9 10 3 4 2 5 4 6 14 15 18 24 25 27 28 30 32 33 33 31 30 29 28 25 23 25 28 28 27 27 27 27 25 23 23 22 21 20 19 17 15 14 13 12 10 9 9 9 8 8 9 10 10 9 9 9 10 12 14 14 14 14 13 12 11 10 9 9 8 6 5 7 7 7 8 8 7 7 6 9 12 11 9 9 10 10
3 1 1 4 7 6 5 1 2 5 4 6 10 3 6 7 9 5 11 19 19 21 24 25 26 27 28 31 33 33 31 31 30 28 24 21 23 24 23 23 24 25 25 25 23 22 21 20 19 18 16 15 13 13 13 12 10 11 10 10 10 9 10 10 10 9 9 9 10 13 14 14 14 13 13 12 10 9 9 8 6 6 8 8 8 9 9 9 9 8 9 11 11 10 10 10 10
1 1 1 3 2 4 7 3 4 4 4 7 10 3 6 8 11 7 15 21 22 23 23 24 26 27 27 28 32 33 32 31 30 27 24 21 21 21 21 22 23 23 23 24 24 22 21 20 19 18 16 15 15 14 13 12 10 10 9 9 9 9 10 10 10 9 9 9 9 11 13 13 12 13 13 12 10 9 9 8 7 7 8 9 9 9 9 10 10 9 9 11 11 11 11 11 10
2 1 2 3 1 4 10 5 5 5 4 5 7 3 5 7 10 9 20 23 23 23 22 24 26 26 26 27 30 32 32 31 30 28 25 22 22 23 22 20 19 19 20 21 23 22 21 21 20 18 17 16 16 14 12 10 9 8 8 8 8 9 9 10 10 11 12 12 11 11 12 12 11 11 12 11 10 9 9 8 7 9 9 9 9 8 8 8 10 10 10 10 11 10 10 11 10
4 2 2 2 1 2 6 3 4 6 2 1 5 3 3 5 6 7 20 23 22 21 21 24 25 25 26 26 29 31 32 32 31 29 26 23 24 23 20 18 18 18 18 18 21 23 22 21 20 19 17 16 15 13 11 9 8 8 7 7 8 9 9 10 11 12 13 13 12 11 12 11 10 10 10 10 10 9 9 8 8 10 10 9 8 8 8 8 9 10 10 10 10 10 10 11 10
4 2 1 3 1 1 3 5 4 2 3 2 3 4 5 5 4 7 18 20 20 21 21 25 25 24 24 26 29 30 32 32 31 29 26 25 24 22 19 19 21 20 18 19 20 22 22 21 20 18 17 15 13 11 10 8 8 7 6 7 8 8 7 7 8 9 9 9 9 9 10 9 8 8 9 10 10 10 9 9 10 11 11 10 9 8 8 8 9 10 10 10 9 10 10 11 10
3 1 1 2 2 2 3 4 4 2 1 3 3 4 8 8 6 8 18 20 20 19 20 24 25 24 24 25 28 30 31 32 30 28 26 25 24 21 20 19 21 22 21 21 21 22 21 20 18 17 16 14 13 11 9 8 7 6 7 6 6 5 4 4 5 5 5 5 5 6 7 7 7 8 9 10 11 11 10 9 11 11 11 11 9 8 9 10 11 11 11 10 9 9 10 10 10
6 4 3 2 2 4 5 6 5 1 1 5 6 6 6 6 6 7 15 20 18 14 14 18 20 22 22 24 28 29 31 31 28 26 25 24 24 23 21 20 21 23 22 21 22 23 21 19 18 17 16 15 14 12 9 8 7 6 7 5 4 3 3 3 3 4 3 3 3 4 6 6 6 7 8 9 10 11 11 11 11 11 11 11 9 8 9 10 11 12 11 10 9 9 9 10 9
6 4 2 3 3 5 5 7 5 3 4 6 8 7 4 6 8 7 13 16 13 11 13 15 18 21 22 24 27 29 31 30 27 25 25 24 24 24 23 22 23 24 23 20 23 25 21 18 18 18 17 16 14 12 10 8 6 5 4 4 3 3 3 2 1 2 3 3 2 2 4 5 5 6 7 8 8 9 11 11 11 10 10 10 9 9 9 10 12 13 12 10 10 9 9 10 10
3 2 1 2 4 5 7 6 5 1 5 5 4 6 4 7 7 4 10 12 12 16 17 18 20 20 22 25 27 29 29 27 27 26 25 25 25 24 24 24 24 26 25 22 25 26 20 17 18 18 17 16 14 11 10 8 7 5 4 4 3 2 2 1 0 2 3 3 3 2 3 4 4 5 6 7 7 8 9 10 10 9 9 9 9 9 9 10 12 12 11 10 10 9 10 11 11
3 2 1 3 3 4 6 5 4 2 3 4 1 6 3 6 5 3 8 11 12 21 23 22 25 23 23 27 29 29 28 26 27 28 27 27 27 25 25 26 25 26 25 24 27 25 20 18 19 18 17 15 14 12 10 9 9 7 5 4 3 1 0 1 1 3 4 2 3 3 2 3 3 4 6 7 7 7 8 9 9 9 9 8 8 9 9 10 11 11 10 10 10 10 11 11 11
3 4 3 3 3 1 3 5 4 3 1 0 3 6 2 5 3 2 7 6 5 12 16 17 22 24 24 27 28 29 29 28 28 29 29 29 28 27 27 27 27 27 27 27 28 24 20 19 19 18 17 16 14 13 12 11 10 7 6 4 2 1 2 2 2 4 5 1 3 4 3 2 3 4 5 5 5 5 6 6 7 7 6 7 8 9 9 10 10 10 9 9 8 9 10 10 9
3 4 5 4 4 4 5 4 5 4 2 3 5 5 4 4 2 2 3 2 2 5 11 13 17 20 20 22 26 28 29 29 29 30 31 31 30 29 28 28 28 29 29 29 28 25 21 19 19 18 18 17 16 14 13 12 9 7 5 4 2 2 2 3 3 5 5 3 1 4 5 5 5 5 5 5 5 5 5 5 4 4 5 6 8 9 9 9 9 9 9 8 7 7 7 7 7
3 4 9 8 6 6 5 3 5 5 3 3 5 4 2 5 1 3 4 2 2 4 8 13 16 18 19 22 26 29 30 29 30 31 32 31 30 30 29 29 30 31 31 29 27 24 22 20 19 19 19 19 17 16 15 12 8 6 3 2 0 1 2 3 4 5 4 3 2 1 4 5 6 7 6 6 6 6 5 4 4 4 5 6 7 7 8 8 7 8 7 6 5 5 5 4 5
1 5 8 8 6 4 2 1 3 2 1 2 4 5 2 5 2 2 6 4 2 3 4 8 14 19 21 23 25 29 31 30 30 31 32 32 31 31 31 31 33 33 32 30 27 25 23 21 20 20 21 21 19 17 15 12 9 7 4 2 1 2 2 4 5 5 3 2 1 1 0 2 4 4 4 3 3 3 3 3 3 3 4 4 5 5 5 5 5 4 4 4 4 3 3 3 2
2 5 5 7 6 4 3 4 4 2 2 3 5 4 4 2 2 3 2 2 1 5 5 6 11 19 22 23 25 28 31 32 32 32 33 33 33 33 33 33 34 34 33 30 28 27 26 23 22 22 23 23 21 19 16 13 9 7 6 5 3 2 3 4 6 5 2 1 1 0 0 2 3 3 2 2 3 3 3 2 1 2 2 2 3 2 2 2 3 3 2 2 2 2 2 3 3
6 5 7 6 6 5 4 6 3 1 1 1 7 4 4 2 5 3 3 4 1 6 7 7 10 18 22 23 25 27 31 33 32 33 34 34 35 34 33 33 33 34 33 32 30 28 27 26 25 24 25 25 23 20 17 14 10 8 7 7 7 6 6 6 7 6 4 3 2 2 2 3 3 3 2 2 4 5 4 2 2 2 3 3 3 3 3 3 4 5 5 5 5 4 3 3 3
5 6 6 4 6 6 4 5 3 3 3 2 6 4 3 3 5 4 3 3 2 7 7 7 10 16 20 23 25 26 29 32 32 32 33 34 35 35 35 34 34 34 33 33 31 29 29 28 27 27 27 27 25 22 19 15 12 11 9 8 9 9 9 8 8 7 6 5 4 3 4 3 3 2 3 3 4 5 4 2 2 4 6 6 5 5 4 4 5 7 8 8 8 8 7 6 6
5 6 6 6 6 5 3 4 4 4 2 5 6 2 3 1 5 3 1 1 3 5 5 6 9 15 20 22 24 26 29 32 33 32 32 33 34 35 35 35 35 35 35 35 34 32 31 30 28 28 28 27 26 23 21 18 14 12 10 9 10 11 11 9 9 8 7 6 5 5 4 4 2 2 3 4 5 5 3 3 3 4 6 6 5 4 4 5 7 9 9 9 9 9 10 10 10
5 5 5 4 4 4 4 4 3 4 2 5 6 3 4 2 4 2 2 5 5 4 6 5 7 16 24 27 28 29 29 31 32 32 32 33 34 35 35 37 36 36 36 36 36 35 33 32 30 29 30 28 26 24 22 20 17 14 12 11 11 11 11 10 9 8 8 6 6 6 5 4 3 3 4 5 5 4 3 3 4 4 5 5 4 4 5 6 8 9 8 8 8 8 9 10 10
5 5 5 4 2 2 1 3 1 2 4 3 3 3 2 3 5 2 3 7 6 6 9 10 9 15 23 27 29 29 28 30 31 31 30 29 28 27 28 31 34 37 38 38 37 36 35 33 31 31 30 29 27 25 24 22 20 17 14 13 12 11 11 10 9 8 7 7 7 6 5 3 3 4 5 6 5 5 4 5 5 6 6 7 6 7 7 7 7 7 7 7 7 7 8 8 8
4 5 4 4 3 2 1 2 0 1 3 2 4 2 1 3 4 2 4 6 7 8 10 14 15 15 16 19 24 25 26 27 27 25 24 22 20 17 14 12 15 22 30 36 37 37 35 33 33 32 31 30 28 27 26 25 23 21 17 15 13 12 10 9 7 7 7 7 7 6 4 2 3 4 6 7 6 6 6 6 7 8 9 9 10 10 10 9 9 8 8 8 8 8 8 8 7
3 4 5 5 4 4 3 3 2 2 2 2 4 1 3 3 3 5 6 6 6 6 5 7 9 9 10 14 20 21 21 22 23 22 21 21 21 22 20 15 13 14 19 27 32 35 35 34 34 33 32 32 30 29 29 28 27 24 20 16 13 11 10 7 5 6 6 6 6 5 3 3 4 6 7 8 7 7 7 7 8 8 9 9 10 10 11 11 10 10 10 10 9 9 8 7 6
1 3 6 3 5 5 3 3 4 4 2 0 2 2 3 3 3 7 6 5 9 9 7 6 4 4 8 14 18 20 21 20 20 19 17 15 14 19 23 20 20 23 24 26 30 32 34 34 34 34 33 32 32 31 30 30 30 26 20 16 13 10 9 6 4 6 6 5 5 4 4 5 6 7 8 9 8 8 7 7 8 8 9 9 9 9 9 10 10 10 10 9 9 9 8 7 7
1 2 3 4 4 7 6 2 1 3 4 1 1 2 4 2 1 5 7 7 8 9 9 8 9 12 14 16 19 20 19 19 17 14 9 5 5 12 18 15 15 21 25 29 31 32 33 34 34 34 34 33 33 33 33 35 35 29 22 18 13 10 11 8 5 6 7 6 6 6 6 7 8 9 9 9 9 8 8 8 8 9 9 9 9 9 9 10 11 11 11 11 10 11 10 10 10
4 3 5 3 2 5 5 3 3 4 3 2 2 1 4 2 1 5 9 7 7 8 8 7 6 11 14 15 19 20 20 20 15 7 2 10 16 19 19 14 13 16 21 27 31 32 32 32 33 34 34 34 35 34 34 33 30 27 26 20 13 12 13 10 8 8 9 8 8 8 9 9 9 10 10 10 10 9 9 8 8 9 9 9 9 10 10 11 12 12 12 12 12 13 12 12 11
4 4 4 3 3 2 2 3 2 2 3 2 2 2 2 2 2 6 7 6 7 7 7 7 6 6 9 11 15 17 20 19 12 5 10 22 25 23 19 15 15 16 20 26 30 29 29 29 30 31 32 33 34 33 31 25 22 23 25 21 17 15 14 13 12 11 11 10 10 11 11 10 10 10 10 10 10 10 10 10 10 9 9 9 9 9 10 10 11 11 12 13 13 12 11 11 11
4 3 3 2 2 4 2 3 3 4 4 2 0 2 2 4 3 6 6 7 7 6 6 5 6 6 7 10 11 13 15 15 13 12 16 17 16 15 13 11 10 11 16 22 24 23 23 24 25 27 29 30 32 33 33 28 25 27 26 23 21 20 18 18 17 15 14 11 11 13 12 11 11 11 10 10 10 10 10 10 10 10 9 8 8 8 8 9 9 9 10 10 10 11 10 9 8
3 3 1 1 2 3 2 2 2 4 5 3 2 0 4 4 3 6 8 8 6 5 5 4 4 4 6 8 10 11 11 11 12 13 12 11 11 10 8 6 4 4 6 8 8 9 11 14 18 21 24 26 29 31 32 30 29 30 30 26 25 24 22 24 22 18 17 14 13 15 15 13 12 11 11 10 9 9 9 9 9 8 8 8 7 7 7 8 8 8 8 7 7 7 6 6 5
5 3 3 3 3 4 4 2 1 2 4 4 5 3 5 4 3 5 7 7 7 8 8 4 1 4 6 7 10 11 10 10 10 11 12 12 11 9 7 5 3 4 3 3 2 1 1 4 8 12 17 20 22 25 27 28 27 28 29 28 28 24 21 26 27 21 19 18 16 16 17 16 14 12 11 10 10 9 8 7 7 6 6 6 5 5 5 6 6 5 5 4 3 3 3 2 2
Wind_Direction
160 155 150 148 154 151 151 148 132 335 88 250 273 238 255 229 244 299 290 283 278 305 96 105 114 119 115 132 141 121 109 147 161 144 181 182 148 156 161 164 166 168 170 169 171 172 172 174 176 178 175 173 170 169 169 166 163 157 152 149 146 144 141 138 136 132 132 130 128 125 124 127 127 126 127 128 126 126 127 124 122 121 123 123 115 111 120 134 144 144 146 151 154 160 158 153 150
148 149 144 146 153 154 171 149 112 334 67 320 273 189 253 300 347 292 277 270 210 95 91 95 92 87 91 109 114 102 87 99 136 126 124 148 150 154 159 162 166 169 171 170 171 172 172 174 177 179 176 173 171 170 169 167 162 155 149 147 147 145 142 139 137 135 136 136 135 132 132 132 131 129 128 129 128 127 126 124 123 122 122 118 112 104 102 105 112 122 138 148 152 158 161 161 157
144 144 139 144 153 158 159 91 95 109 110 222 268 229 264 344 50 309 291 261 121 99 71 70 68 62 81 98 91 93 98 82 127 127 128 150 153 154 159 163 167 169 172 172 172 172 172 175 178 180 178 172 171 171 170 168 163 157 150 147 148 147 145 142 138 139 141 143 143 141 140 137 135 132 130 130 130 130 127 126 125 123 121 116 115 111 108 104 91 90 111 143 149 151 156 161 159
141 140 138 146 146 142 108 65 131 122 150 207 263 262 245 172 153 328 338 120 127 98 17 22 35 38 73 99 86 78 98 114 142 140 142 155 156 153 158 164 167 171 173 172 172 173 173 176 178 180 178 173 171 172 171 170 165 159 154 149 149 149 148 145 143 143 145 147 147 146 145 141 138 135 134 133 133 133 131 129 127 124 121 119 119 120 122 122 94 76 76 122 147 145 147 154 159
139 139 147 159 148 147 102 84 120 125 200 182 236 262 215 191 167 353 33 152 167 2 4 25 18 47 76 79 77 88 114 132 146 150 151 157 156 153 158 164 168 171 173 172 173 174 174 175 177 180 178 174 173 173 173 171 167 162 158 155 153 152 152 151 152 151 150 150 149 149 148 146 142 140 139 138 138 138 137 132 129 126 124 122 123 126 125 129 111 73 57 75 142 146 147 154 160
141 139 148 156 140 149 119 123 166 196 225 165 214 263 232 214 188 344 293 210 216 253 337 345 190 76 69 50 62 107 120 133 155 160 156 155 156 157 160 164 169 172 173 172 174 175 175 174 176 180 179 176 175 175 174 171 168 164 161 160 157 156 157 158 159 158 155 153 152 150 146 142 136 134 135 138 142 141 141 136 133 130 129 129 129 133 129 132 125 63 40 51 133 154 159 164 166
146 146 147 135 100 101 118 163 199 217 246 178 199 270 276 251 193 169 300 230 221 243 315 127 140 109 67 55 74 99 74 152 164 163 158 157 159 162 164 167 171 173 173 172 174 176 175 174 176 178 178 177 176 176 175 172 170 167 164 162 159 158 159 161 161 159 157 156 154 148 139 132 126 124 127 131 136 137 137 137 137 136 137 139 139 145 142 141 130 54 26 36 95 164 171 170 171
153 159 153 129 60 41 108 189 227 214 249 233 231 261 274 277 257 184 210 214 218 223 141 132 135 98 55 54 79 72 17 150 166 161 158 161 164 165 167 171 173 173 172 172 174 175 174 175 176 177 177 177 178 178 177 173 171 170 167 162 160 157 158 159 159 159 158 158 152 145 136 130 126 123 124 125 128 129 130 133 138 141 148 152 151 160 163 159 150 124 50 36 56 170 180 171 171
156 162 149 121 116 62 43 257 259 232 252 265 258 262 272 279 278 221 188 218 215 179 148 146 155 137 129 81 82 100 97 150 167 160 160 167 168 167 170 173 174 173 172 172 173 174 174 175 176 174 173 174 176 179 178 174 173 173 169 164 161 158 157 157 158 159 157 154 148 141 136 133 131 127 125 124 124 124 126 131 137 144 150 156 159 168 175 167 163 164 161 156 62 170 190 178 172
156 157 144 105 117 117 312 278 256 252 255 252 258 271 278 282 282 235 190 198 189 165 152 163 128 128 123 95 95 124 136 153 164 162 166 170 171 171 171 174 176 174 172 172 173 174 173 172 174 171 169 171 174 177 178 176 176 175 171 166 164 161 158 157 158 158 155 151 145 140 137 134 130 125 125 125 123 123 125 130 138 145 149 154 160 166 171 164 164 171 170 176 174 180 192 190 181
148 140 126 92 97 168 229 251 262 270 267 274 276 276 286 288 288 220 174 158 170 151 147 164 120 120 113 103 122 135 152 162 168 166 168 172 174 174 173 175 177 176 173 171 171 174 171 169 172 172 171 171 170 173 178 179 179 176 171 168 166 164 161 159 159 156 154 150 144 140 136 134 128 124 123 125 123 122 123 126 132 138 147 152 159 160 154 144 139 155 170 174 176 180 186 194 192
155 29 88 102 158 184 200 224 263 282 292 311 283 297 318 302 289 166 159 142 152 138 149 171 147 132 103 103 139 150 163 166 172 169 168 172 173 174 175 176 177 177 174 171 171 173 172 170 170 172 174 171 169 172 180 183 182 178 172 170 168 165 162 159 157 155 154 149 145 142 138 133 127 126 124 125 123 123 121 122 128 130 140 143 147 146 135 124 115 129 159 171 174 179 184 192 195
173 148 97 147 194 160 164 188 267 311 316 286 245 316 332 324 203 156 144 125 142 139 162 174 155 138 90 128 149 163 170 171 174 172 170 171 172 174 176 176 177 177 174 172 172 174 172 167 165 170 172 168 171 174 183 187 183 179 172 169 167 164 161 158 157 154 153 150 149 146 139 131 127 130 128 125 123 125 123 123 130 131 135 133 138 141 135 123 112 118 144 168 173 179 185 189 193
165 159 124 171 137 125 155 188 267 6 293 263 272 331 340 359 87 147 132 120 149 142 162 171 158 134 107 138 157 175 173 173 175 174 172 170 173 174 176 177 178 177 174 173 173 175 168 162 162 168 172 167 171 174 181 185 181 177 170 167 164 163 161 158 157 153 152 153 155 151 142 134 130 133 128 125 126 129 127 126 128 126 130 126 130 138 136 125 115 116 133 166 174 179 185 187 191
151 150 109 124 66 120 185 221 174 132 253 253 324 344 352 32 77 132 124 128 161 139 149 162 162 134 165 167 184 185 176 174 176 175 172 171 174 174 177 179 179 178 174 173 174 174 167 165 166 170 174 170 169 169 173 177 177 174 168 165 164 163 160 157 157 154 154 157 161 158 149 143 139 137 129 125 129 134 131 127 124 120 130 126 125 132 132 129 122 121 132 164 175 180 184 185 187
138 110 77 104 173 173 179 206 147 123 254 243 334 355 4 29 63 103 119 148 136 143 148 163 178 292 197 180 196 186 176 172 174 175 173 172 175 175 179 180 180 178 174 174 174 173 169 167 167 171 176 171 168 166 168 171 172 171 167 166 164 162 159 158 160 157 158 161 165 166 158 155 156 150 134 130 133 142 140 127 125 117 126 130 128 133 130 138 134 128 135 167 178 181 183 184 184
139 94 74 101 192 186 181 198 169 155 264 273 338 6 17 360 37 76 117 160 142 151 160 181 189 310 208 193 206 176 173 173 174 175 175 173 176 177 180 182 181 179 175 176 176 174 171 168 168 175 177 171 171 169 168 168 166 167 166 165 164 162 161 161 163 162 164 167 171 171 167 168 172 171 149 142 141 155 161 140 136 114 121 130 133 144 141 151 148 138 139 168 179 180 183 183 183
146 101 131 203 187 191 181 189 193 172 276 289 322 354 26 4 58 104 99 134 136 151 176 168 189 316 198 203 170 168 172 174 175 174 175 175 177 179 180 181 182 180 177 176 177 174 171 170 171 177 177 171 173 171 167 164 164 165 165 167 166 165 165 166 167 167 170 171 175 175 173 179 182 181 170 163 175 192 196 178 161 129 129 135 139 149 166 167 157 149 146 167 177 177 182 183 183
160 108 151 216 195 208 207 202 210 206 268 293 310 333 360 341 161 144 109 131 136 146 169 160 188 158 175 193 167 169 172 173 176 176 176 177 179 182 183 183 184 181 178 177 176 174 172 174 175 176 176 173 174 171 166 165 165 167 168 168 167 167 168 172 173 169 170 171 178 179 180 190 192 188 188 192 203 218 223 240 212 170 158 149 150 154 162 179 164 160 157 169 176 176 180 182 183
191 140 184 239 209 226 250 244 251 263 281 302 307 321 327 315 267 172 146 150 172 189 184 165 183 175 170 177 170 170 171 171 172 171 173 178 183 185 181 181 184 182 179 178 176 175 176 178 174 174 178 176 174 173 169 167 168 171 172 169 168 172 174 177 173 165 168 173 180 186 190 197 199 198 204 208 211 221 227 246 258 223 195 174 168 158 159 195 171 166 162 170 178 179 179 181 182
188 161 194 227 177 201 256 255 266 279 288 284 289 313 318 310 255 178 142 131 263 238 206 193 197 192 175 168 170 168 168 166 165 169 172 178 187 190 183 179 183 184 181 179 177 177 178 178 175 176 181 178 176 174 172 172 172 175 175 171 173 176 177 176 169 166 173 181 187 190 196 201 203 206 215 221 220 232 237 240 241 265 250 206 183 166 163 197 179 169 164 171 179 182 179 179 181
206 209 212 203 157 206 267 263 276 287 293 281 286 318 315 322 183 176 157 150 229 235 222 212 209 202 183 169 167 164 164 168 173 179 179 181 189 194 192 186 188 191 186 182 178 179 179 177 180 182 182 179 177 177 176 177 176 178 180 178 180 179 176 178 175 177 183 191 198 198 201 205 208 213 221 228 244 256 254 249 239 253 268 233 193 177 208 203 194 175 171 175 177 182 180 177 180
246 264 247 233 205 228 271 273 280 286 289 281 277 305 307 2 106 189 184 206 228 254 254 223 205 195 178 166 164 164 169 177 182 185 185 184 187 192 188 182 191 198 195 190 182 180 180 178 183 185 183 181 180 181 181 181 181 184 187 187 190 187 182 188 191 194 201 208 213 211 211 213 216 221 227 232 250 266 269 263 249 243 250 237 208 213 234 213 200 177 175 178 174 178 179 177 181
217 273 302 273 240 240 268 275 280 282 278 276 278 297 296 283 309 208 208 236 253 273 274 223 193 178 167 162 164 170 176 181 185 187 189 185 185 192 184 177 187 194 198 196 186 182 182 180 182 183 185 186 184 183 184 186 189 191 195 198 200 200 199 200 203 211 222 230 232 227 224 224 225 227 231 235 246 261 269 274 259 243 238 229 225 246 232 205 199 178 173 173 166 164 169 176 184
211 242 269 273 249 256 275 283 284 283 278 279 281 281 279 275 255 194 222 245 263 269 244 200 179 169 164 164 168 175 179 182 186 188 187 184 183 186 183 181 181 184 195 197 187 184 184 180 179 183 188 189 187 186 186 188 191 196 201 203 205 209 208 203 206 217 231 241 244 242 236 235 234 232 232 236 243 254 262 270 264 244 240 228 218 221 202 190 188 178 171 166 160 159 165 177 187
211 222 245 261 267 274 283 286 284 283 279 275 266 258 272 277 243 212 252 252 261 219 187 182 172 166 165 168 174 180 181 183 188 187 183 183 180 182 186 187 179 177 189 193 186 185 182 179 180 183 187 189 190 191 191 190 191 197 202 204 208 212 209 212 217 222 235 242 246 247 245 242 240 238 234 234 240 248 255 260 259 247 239 217 208 206 195 196 185 175 172 166 163 169 176 182 188
224 223 242 255 267 281 283 280 280 281 280 254 207 243 270 271 186 237 261 200 189 167 164 171 170 167 169 173 178 182 184 186 189 186 183 182 179 184 188 186 179 175 183 188 185 182 179 179 181 182 185 188 192 195 197 196 195 200 204 208 214 216 214 223 230 236 245 250 253 253 252 250 244 239 237 237 238 243 251 255 257 256 238 207 204 210 206 211 200 179 178 174 173 179 183 183 184
256 241 265 273 282 292 270 259 269 262 273 243 208 220 317 63 171 237 213 171 174 165 159 166 169 169 173 175 178 183 188 190 190 188 186 183 182 186 188 187 181 176 181 185 182 179 178 180 181 181 185 188 191 195 198 197 200 203 206 211 216 221 223 229 238 247 254 256 259 257 255 255 250 244 240 242 241 243 248 251 261 258 234 208 200 211 213 218 214 192 186 186 187 189 189 186 185
262 246 279 295 351 328 261 245 256 207 233 236 193 202 327 293 234 239 176 164 167 161 159 165 168 170 174 177 179 184 191 194 193 192 190 186 186 189 188 187 183 178 180 183 181 179 178 179 180 182 184 184 186 190 191 189 195 199 202 209 217 226 230 237 247 252 255 257 260 259 256 254 253 249 243 245 243 245 248 249 259 249 230 212 200 209 214 219 217 204 196 197 198 200 201 199 197
268 31 133 309 6 338 272 325 148 166 240 205 158 212 284 262 251 218 160 166 162 154 160 167 169 171 175 178 181 185 193 197 196 195 193 190 190 192 189 186 186 183 181 182 183 182 181 179 180 184 181 179 180 180 183 188 195 197 200 209 220 230 237 243 249 250 251 254 257 260 261 256 253 251 245 243 241 243 247 249 252 239 228 212 202 209 214 217 216 210 207 205 208 213 216 214 211
302 349 47 5 19 287 293 318 131 146 256 190 154 233 260 261 265 203 170 176 166 156 162 170 172 175 177 179 183 189 195 198 200 196 195 195 191 193 196 194 194 191 185 182 183 182 180 178 180 184 180 177 178 179 183 190 194 197 203 214 224 235 245 250 252 254 256 257 258 261 263 259 254 249 241 238 238 237 239 246 243 227 219 207 201 208 213 214 211 209 210 211 217 222 225 225 223
29 75 311 348 134 266 303 302 174 181 253 179 155 231 257 258 267 205 178 180 171 161 164 172 177 178 180 182 184 191 196 199 202 198 198 199 193 197 199 196 198 201 196 186 181 179 175 176 180 181 178 177 178 180 182 183 185 193 207 220 230 240 247 252 255 258 259 260 263 263 260 257 253 243 231 229 232 230 230 241 234 214 208 200 198 206 207 208 208 209 210 212 219 223 229 232 233
3 96 225 280 148 282 314 312 218 201 205 172 164 190 251 263 279 203 179 179 171 163 167 176 180 182 183 185 186 192 197 200 203 200 200 200 198 203 198 187 189 197 205 196 183 179 175 176 179 176 176 178 177 177 176 177 180 188 210 226 234 243 250 259 262 261 261 258 257 255 253 252 247 235 224 223 227 224 226 235 221 203 198 195 198 207 208 208 209 213 215 214 219 224 231 241 247
317 25 100 249 213 256 304 314 297 157 136 246 188 173 226 271 308 184 177 180 172 167 175 180 181 184 186 186 188 194 198 202 204 203 203 203 203 204 195 188 186 186 198 203 190 182 178 176 175 175 177 176 174 173 174 178 178 185 213 235 242 253 263 272 273 270 268 262 252 247 245 243 239 233 227 226 227 222 225 228 212 201 201 201 205 209 212 214 213 216 219 218 225 233 236 245 254
209 161 62 294 304 277 251 273 289 45 61 238 191 208 237 271 295 192 181 182 181 180 180 181 181 183 187 189 191 196 201 205 207 207 208 206 204 201 193 191 191 187 189 198 198 187 179 176 176 178 178 174 172 171 174 178 180 192 216 237 246 251 255 259 268 278 282 274 258 242 236 235 233 235 235 232 229 225 226 223 211 208 212 214 216 216 218 221 219 220 221 222 228 236 243 250 257
154 165 161 187 266 273 248 250 254 191 251 240 213 222 226 243 259 209 188 184 184 187 182 182 182 182 186 190 193 199 204 207 206 207 211 207 204 203 196 190 191 189 183 188 199 192 182 180 181 180 179 175 169 166 170 174 179 196 211 226 235 224 204 206 242 269 280 283 278 247 233 230 230 229 230 233 230 227 225 216 210 213 217 219 223 227 227 226 224 223 224 231 234 235 243 248 253
125 130 152 192 223 272 265 260 276 143 174 249 227 209 186 209 230 213 188 179 175 178 177 185 185 184 187 189 195 201 205 208 205 205 210 207 204 203 198 193 188 186 181 181 190 191 188 186 182 180 179 177 169 161 160 163 165 174 186 192 196 192 171 164 218 277 277 267 269 255 235 219 219 222 223 227 224 219 216 211 212 217 216 216 223 231 230 227 225 222 225 234 239 239 243 245 248
102 129 217 266 224 250 255 255 305 83 174 253 231 176 176 216 239 229 176 170 184 187 179 184 188 188 189 190 196 201 205 209 204 204 207 206 205 204 200 197 192 188 185 180 183 188 191 188 183 182 181 180 176 165 159 159 154 142 133 148 163 171 167 158 194 345 321 258 234 248 254 236 224 217 212 211 204 197 199 206 215 218 217 219 226 233 233 229 226 225 230 237 237 237 240 242 242
89 115 158 269 239 271 285 275 317 331 196 264 202 134 181 250 273 272 193 186 199 196 188 186 187 188 190 192 196 199 204 208 205 205 205 204 206 207 204 201 197 191 186 184 186 191 194 189 184 186 188 186 184 178 170 165 158 147 136 147 170 174 241 303 333 356 352 268 224 226 250 252 234 216 207 206 205 204 207 215 221 222 225 226 226 233 235 233 231 231 237 241 238 238 244 246 242
111 130 146 249 259 317 291 282 317 335 340 279 106 96 11 309 330 277 220 215 222 202 195 191 190 192 194 194 196 199 202 205 206 205 205 205 206 208 208 205 200 192 188 189 191 194 197 192 186 189 193 192 191 185 177 172 164 153 146 157 189 209 257 291 324 347 359 9 205 210 214 206 195 192 192 199 207 213 215 215 217 216 220 222 223 228 229 230 232 232 235 237 236 237 244 247 246
249 183 169 218 242 209 226 283 332 342 19 71 73 56 1 348 3 269 260 238 242 195 187 192 197 200 200 199 199 202 205 206 206 206 205 206 207 208 209 208 203 195 193 195 196 197 200 196 189 192 197 196 198 191 182 178 169 160 156 161 192 238 272 306 330 342 355 13 176 206 217 218 216 208 203 211 216 220 220 211 210 212 217 222 221 221 221 223 227 228 230 229 228 232 235 236 243
287 226 203 203 206 219 238 325 13 26 10 16 61 66 309 324 325 263 318 322 222 194 183 191 195 198 204 205 203 204 208 210 209 209 207 206 208 209 209 209 205 200 199 200 200 201 202 199 194 197 201 200 200 194 188 186 175 164 155 132 67 319 317 322 328 337 347 5 42 179 218 226 230 230 234 242 239 236 233 224 228 232 236 233 224 221 219 219 223 228 236 235 227 227 234 241 249
320 244 210 186 171 206 240 61 70 85 308 319 67 111 233 320 5 266 323 333 266 263 222 198 190 196 205 209 208 205 207 210 211 212 211 209 210 209 209 209 207 205 204 202 202 205 206 203 200 201 203 203 202 199 197 196 184 169 163 151 20 354 343 324 322 326 335 1 39 75 272 256 249 241 240 245 232 226 223 224 234 239 243 235 224 225 221 216 217 222 238 241 230 221 226 230 231
241 235 154 139 153 182 171 103 100 185 221 329 10 87 115 327 261 248 319 51 308 279 253 227 201 201 206 211 213 209 208 211 212 212 211 211 211 210 210 209 209 209 207 203 204 207 207 205 204 204 206 206 204 203 205 204 194 181 183 195 213 264 294 301 307 306 291 280 277 175 286 272 264 253 239 204 173 172 190 214 218 217 224 214 211 214 201 184 169 156 151 170 172 136 159 181 171
241 208 131 135 142 136 120 99 91 6 104 311 325 29 96 273 275 307 36 97 241 263 243 236 218 209 209 211 214 213 211 212 213 213 212 211 211 211 211 211 210 210 209 207 205 207 208 206 205 205 206 208 208 208 210 210 203 195 199 210 220 236 249 262 281 279 255 249 260 263 267 258 251 250 244 209 176 174 188 196 155 156 164 154 151 147 140 133 123 118 118 118 111 110 125 142 148
214 157 104 77 75 77 79 90 95 34 63 228 290 351 104 257 289 327 22 84 234 253 246 236 224 219 215 212 214 214 212 212 213 214 214 213 212 212 212 212 212 212 212 210 208 208 208 207 207 206 207 210 212 212 213 214 211 202 205 219 228 235 241 252 265 258 244 242 248 266 276 271 263 248 241 220 188 179 182 177 150 153 156 150 149 149 142 130 125 120 118 118 114 113 117 118 123
131 109 64 44 35 33 44 51 79 61 10 252 267 296 119 230 284 259 182 238 240 252 276 253 222 220 220 216 215 214 213 212 213 214 215 214 213 212 212 212 212 213 212 210 208 209 208 209 210 207 207 212 215 217 218 219 218 209 205 217 232 241 248 259 263 251 244 248 253 267 276 271 254 214 205 191 174 169 168 163 155 152 155 159 167 170 162 146 143 140 131 125 122 116 111 111 114
100 82 69 71 2 12 31 358 46 89 266 260 272 284 115 142 257 220 236 281 278 266 271 253 215 214 217 215 214 213 213 212 212 213 213 213 213 213 213 213 213 212 211 210 208 208 209 211 212 209 210 214 217 220 221 222 224 217 208 215 231 244 254 267 267 252 248 257 265 269 267 255 233 185 163 155 158 160 150 136 131 136 143 147 150 144 134 134 142 148 145 138 134 125 117 116 118
80 82 84 96 11 12 33 309 29 154 239 260 293 291 123 211 237 217 266 277 277 271 266 267 254 228 220 216 212 211 210 211 212 212 212 212 212 212 214 215 215 215 213 212 210 210 211 213 214 212 213 216 217 219 220 223 224 220 214 218 231 244 256 269 265 247 252 269 275 273 267 246 213 173 151 146 148 140 127 121 118 122 122 117 116 117 118 123 130 140 144 144 143 137 132 128 125
130 134 126 126 108 93 217 269 319 221 240 279 303 289 215 265 269 302 296 282 285 290 284 279 271 258 243 224 211 205 203 206 207 206 205 205 204 207 214 224 231 225 219 215 212 212 213 214 215 215 217 219 219 220 222 224 227 225 218 218 229 242 256 271 264 243 254 278 279 272 265 228 177 156 147 146 147 136 126 125 121 119 117 112 111 111 113 116 119 123 125 125 125 126 126 123 116
173 155 129 144 154 144 192 215 170 193 219 295 299 284 165 206 280 310 298 307 334 346 331 297 277 265 244 213 199 192 189 192 195 197 202 205 208 214 219 236 266 259 236 225 219 216 216 216 217 219 221 223 224 227 229 230 227 223 215 211 220 238 255 268 265 248 253 277 279 259 232 183 152 148 150 151 152 146 138 134 130 126 123 118 115 112 112 112 113 115 115 113 114 113 111 111 108
225 135 108 152 181 142 134 168 166 164 131 22 269 235 210 209 277 312 326 358 9 22 33 41 69 126 163 170 172 171 172 176 182 186 190 193 204 216 220 233 253 250 241 237 233 227 222 220 221 223 226 228 230 230 229 226 221 215 208 205 210 229 237 229 236 252 253 260 263 238 200 166 152 150 153 156 157 155 149 145 142 138 135 130 125 120 116 114 112 112 112 111 111 111 109 109 108
171 122 157 214 175 119 111 130 56 82 122 190 271 276 303 331 312 323 3 20 5 12 25 46 87 115 129 139 146 153 156 156 160 161 158 168 204 223 228 238 246 239 235 240 242 238 231 227 226 228 229 231 232 232 230 228 223 212 198 194 200 214 210 191 196 246 252 244 232 212 186 167 159 155 153 155 159 160 157 155 151 147 144 139 132 126 120 115 112 110 109 109 108 107 109 111 110
124 180 196 192 109 97 103 112 23 46 134 246 341 331 307 3 151 328 3 11 349 352 359 12 68 108 117 127 137 143 146 147 144 125 186 243 233 222 224 229 231 232 236 242 245 244 241 237 236 235 235 237 237 234 229 222 214 199 189 190 194 204 204 190 192 231 249 240 223 204 186 173 163 159 157 156 159 163 162 160 160 155 148 143 138 133 126 119 116 115 113 112 110 107 110 113 112
117 168 156 117 128 137 90 119 129 111 147 271 349 358 285 195 221 326 344 328 316 330 344 355 10 60 95 116 129 137 147 150 146 153 219 230 224 215 215 222 230 235 238 240 243 246 246 245 245 244 243 242 237 229 221 211 200 191 193 200 197 198 210 204 196 218 240 234 222 213 196 183 176 169 164 161 161 163 163 163 163 163 158 151 145 139 133 127 123 122 120 118 115 111 111 113 113
55 88 66 41 129 154 158 138 147 145 152 190 46 16 284 218 248 308 303 287 293 306 316 328 338 16 83 113 118 124 140 148 155 179 201 211 204 199 202 206 217 222 226 232 237 242 245 246 249 248 245 240 236 235 234 227 216 208 213 221 211 206 213 204 194 210 229 227 221 220 212 198 191 185 178 175 173 170 170 170 169 168 167 162 155 149 143 136 130 128 125 123 122 120 120 119 118
77 66 49 15 66 119 143 96 99 127 140 165 147 192 268 247 254 286 291 294 294 280 270 285 323 14 81 112 121 127 137 140 148 165 172 167 162 166 165 157 161 173 196 218 229 239 247 251 253 250 246 243 243 247 244 234 227 227 234 236 219 213 217 206 200 212 221 220 220 220 221 215 205 200 195 191 188 185 182 181 180 176 176 175 169 162 155 146 139 135 132 127 127 127 127 126 119
137 135 150 149 127 127 126 119 265 104 122 166 155 173 261 277 289 294 301 300 291 270 245 236 18 69 90 104 124 134 137 134 135 142 142 142 145 143 134 125 96 79 84 77 70 39 307 273 267 256 252 252 253 254 249 244 244 242 241 230 211 217 234 220 215 222 222 220 221 218 221 222 215 210 208 205 203 201 198 194 193 189 186 186 182 176 165 155 146 139 132 121 115 110 101 94 82